Location: Newark
(59.8814°N, 10.8258°E)
Time: 12:39:15
(UTC+00:00)

Envisat - Pass Details

Date: 31 January 2020
Orbit: 764 x 766 km, 98.1° (Epoch: 24 February)

Event Time Altitude Azimuth Distance (km) Brightness Sun altitude
Rises 05:44:04 0° 18° (NNE) 3,249 6.3 -13.4°
Reaches altitude 10° 05:46:29 10° 24° (NNE) 2,318 5.6 -13.1°
Maximum altitude 05:51:25 47° 99° (E) 1,008 4.2 -12.5°
Drops below altitude 10° 05:56:19 10° 173° (S) 2,302 5.8 -11.9°
Sets 05:58:42 0° 179° (S) 3,223 6.4 -11.6°
